This demonstration page uses our WeatherBlox Daily Observations layout. Learn more.

Left ArrowRight Arrow

Hourly Observations for May 14, 2021

Temp ( °F °C ) Dew Point ( °F °C ) Humidity (%) Winds ( mph kmh ) Pressure ( in mb ) Visibility ( mi km ) Precip ( " mm )
12:15 am 00:15 Cloudy with Thunderstorms 55 13 52 11 88 88 SSE 17 28 30.15 1021 7 11.26538 0.04 1.016
12:35 am 00:35 Cloudy with Rain 55 12.7 52 11 89 89 SSE 13 20 30.15 1021 5 8.0467 0.12 3.048
12:55 am 00:55 Cloudy with Light Rain 55 12.5 52 11 91 91 S 16 26 30.14 1021 10 16.0934 0.18 4.572
1:15 am 01:15 Cloudy with Thunderstorms 55 12.5 52 11 91 91 SSW 15 24 30.15 1021 10 16.0934 N/A
1:35 am 01:35 Windy with Storms Likely 56 13.5 50 10.2 81 81 S 35 56 30.03 1017 10 16.0934 0.02 0.508
1:55 am 01:55 Partly Cloudy 55 12.6 51 10.5 87 87 S 33 54 30.02 1017 10 16.0934 0.02 0.508
2:15 am 02:15 Clear 54 12.3 51 10.5 89 89 S 29 46 30.05 1018 10 16.0934 N/A
2:35 am 02:35 Clear 54 12.1 50 10.2 88 88 S 29 46 30.05 1018 10 16.0934 N/A
2:55 am 02:55 Clear 55 12.5 50 10.2 86 86 S 29 46 30.07 1018 10 16.0934 N/A
3:15 am 03:15 Clear 54 12 49 9.7 86 86 S 25 41 30.08 1018 10 16.0934 N/A
3:35 am 03:35 Clear 54 12 49 9.5 85 85 S 23 37 30.09 1019 10 16.0934 N/A
3:55 am 03:55 Clear 53 11.6 49 9.5 87 87 S 23 37 30.08 1019 10 16.0934 N/A
4:15 am 04:15 Clear 52 11.3 49 9.3 88 88 S 20 31 30.08 1019 10 16.0934 N/A
4:35 am 04:35 Clear 52 11.2 49 9.2 88 88 S 22 35 30.08 1019 10 16.0934 N/A
4:55 am 04:55 Clear 52 11 48 9.1 88 88 S 17 28 30.08 1019 10 16.0934 N/A
5:15 am 05:15 Clear 51 10.8 48 9.1 89 89 S 20 31 30.09 1019 10 16.0934 N/A
5:35 am 05:35 Clear 51 10.7 48 9 89 89 S 18 30 30.09 1019 10 16.0934 N/A
5:55 am 05:55 Clear 51 10.6 48 9 90 90 S 20 31 30.09 1019 10 16.0934 N/A
6:15 am 06:15 Clear 51 10.5 48 9 91 91 S 21 33 30.08 1019 10 16.0934 N/A
6:35 am 06:35 Sunny 51 10.4 48 9 91 91 S 16 26 30.08 1019 10 16.0934 N/A
6:55 am 06:55 Sunny 51 10.5 48 8.9 90 90 SSW 17 28 30.08 1019 10 16.0934 N/A
7:15 am 07:15 Sunny 51 10.6 48 9 90 90 S 13 20 30.08 1019 10 16.0934 N/A
7:35 am 07:35 Sunny 52 11.1 49 9.2 88 88 S 14 22 30.08 1019 10 16.0934 N/A
7:55 am 07:55 Sunny 53 11.6 49 9.3 86 86 S 13 20 30.08 1019 10 16.0934 N/A
8:15 am 08:15 Sunny 54 12.4 49 9.6 83 83 S 14 22 30.07 1018 10 16.0934 N/A
8:35 am 08:35 Sunny 56 13.1 50 9.8 81 81 SSW 12 19 30.08 1018 10 16.0934 N/A
8:55 am 08:55 Sunny 56 13.6 50 10.1 80 80 SSW 14 22 30.07 1018 10 16.0934 N/A
9:15 am 09:15 Sunny 58 14.4 51 10.7 79 79 SSW 15 24 30.07 1018 10 16.0934 N/A
9:35 am 09:35 Sunny 59 15 51 10.8 76 76 SSW 12 19 30.07 1018 10 16.0934 N/A
9:55 am 09:55 Partly Cloudy 59 15.2 52 11.2 77 77 SSW 8 13 30.07 1018 10 16.0934 N/A
10:15 am 10:15 Mostly Cloudy 60 15.5 52 11.2 76 76 SW 9 15 30.07 1018 10 16.0934 N/A
10:35 am 10:35 Mostly Cloudy 61 16 53 11.6 75 75 SW 8 13 30.06 1018 10 16.0934 N/A
10:55 am 10:55 Mostly Cloudy 62 16.5 53 11.7 73 73 SSW 8 13 30.06 1018 10 16.0934 N/A
11:15 am 11:15 Cloudy 62 16.5 53 11.7 73 73 SW 5 7 30.05 1017 10 16.0934 N/A
11:35 am 11:35 Mostly Cloudy 61 16.3 52 11.3 72 72 WSW 3 6 30.05 1018 10 16.0934 N/A
11:55 am 11:55 Mostly Cloudy 62 16.9 53 11.6 71 71 WSW 3 6 30.04 1017 10 16.0934 N/A
12:15 pm 12:15 Cloudy 64 17.7 53 11.6 68 68 N N/A 30.04 1017 10 16.0934 N/A
12:35 pm 12:35 Cloudy 64 17.7 54 12.1 70 70 N N/A 30.04 1017 10 16.0934 N/A
12:55 pm 12:55 Cloudy 64 17.7 54 12 69 69 N N/A 30.03 1017 10 16.0934 N/A
1:15 pm 13:15 Cloudy 64 17.9 53 11.8 68 68 N N/A 30.01 1016 10 16.0934 N/A
1:35 pm 13:35 Cloudy 65 18.1 54 12.1 68 68 E 6 9 30 1016 10 16.0934 N/A
1:55 pm 13:55 Cloudy 65 18.4 53 11.8 66 66 N N/A 30.01 1016 10 16.0934 N/A
2:15 pm 14:15 Cloudy 65 18.4 54 12.2 67 67 N N/A 30 1016 10 16.0934 N/A
2:35 pm 14:35 Mostly Cloudy 66 18.7 54 12.4 67 67 E 8 13 29.99 1016 10 16.0934 N/A
2:55 pm 14:55 Mostly Cloudy 66 18.9 53 11.9 64 64 E 5 7 30 1016 10 16.0934 N/A
3:15 pm 15:15 Cloudy 66 19 54 12 64 64 ESE 3 6 30 1016 10 16.0934 N/A
3:35 pm 15:35 Cloudy 65 18.6 53 11.9 65 65 E 3 6 30 1016 10 16.0934 N/A
3:55 pm 15:55 Cloudy 66 19 53 11.8 63 63 ESE 3 6 29.99 1015 10 16.0934 N/A
4:15 pm 16:15 Cloudy 68 20 54 12.3 61 61 E 7 11 29.98 1015 10 16.0934 N/A
4:35 pm 16:35 Cloudy 66 18.9 54 12.1 65 65 ENE 8 13 29.98 1015 10 16.0934 N/A
4:55 pm 16:55 Cloudy 67 19.3 54 12.1 63 63 ENE 6 9 29.98 1015 10 16.0934 N/A
5:15 pm 17:15 Cloudy 67 19.7 54 12.4 63 63 E 5 7 29.98 1015 10 16.0934 N/A
5:35 pm 17:35 Mostly Cloudy 68 20 54 12.4 62 62 ENE 5 7 29.98 1015 10 16.0934 N/A
5:55 pm 17:55 Partly Cloudy 68 20 54 12.1 61 61 ESE 6 9 29.97 1015 10 16.0934 N/A
6:15 pm 18:15 Sunny 68 20 54 12.3 61 61 ESE 9 15 29.96 1014 10 16.0934 N/A
6:35 pm 18:35 Sunny 68 20 55 12.5 62 62 ESE 12 19 29.96 1014 10 16.0934 N/A
6:55 pm 18:55 Sunny 67 19.7 54 12.3 63 63 ESE 10 17 29.95 1014 10 16.0934 N/A
7:15 pm 19:15 Sunny 67 19.6 55 12.7 65 65 SE 9 15 29.95 1014 10 16.0934 N/A
7:35 pm 19:35 Sunny 65 18.6 55 12.7 69 69 ESE 8 13 29.96 1015 10 16.0934 N/A
7:55 pm 19:55 Sunny 65 18.5 56 13.2 71 71 SE 8 13 29.96 1015 10 16.0934 N/A
8:15 pm 20:15 Sunny 64 17.7 56 13.4 76 76 SE 7 11 29.97 1015 10 16.0934 N/A
8:35 pm 20:35 Sunny 62 16.8 56 13.2 79 79 ESE 6 9 29.98 1015 10 16.0934 N/A
8:55 pm 20:55 Clear 60 15.7 56 13.3 86 86 E 5 7 29.99 1016 10 16.0934 N/A
9:15 pm 21:15 Clear 59 15.2 56 13.1 87 87 ESE 6 9 30 1016 10 16.0934 N/A
9:35 pm 21:35 Clear 58 14.7 56 13.1 90 90 E 6 9 29.99 1016 10 16.0934 N/A
9:55 pm 21:55 Clear 59 15 55 13 88 88 E 8 13 29.98 1015 10 16.0934 N/A
10:15 pm 22:15 Clear 58 14.7 55 12.8 88 88 E 7 11 30 1016 10 16.0934 N/A
10:35 pm 22:35 Clear 58 14.3 54 12.4 88 88 E 6 9 30.01 1016 10 16.0934 N/A
10:55 pm 22:55 Clear 57 13.9 54 12.2 90 90 ESE 8 13 30 1016 10 16.0934 N/A
11:15 pm 23:15 Clear 56 13.6 54 12.2 91 91 SE 8 13 30 1016 10 16.0934 N/A
11:35 pm 23:35 Clear 56 13.5 54 12 91 91 SE 7 11 30.01 1016 10 16.0934 N/A
11:55 pm 23:55 Clear 56 13.5 54 12.1 91 91 SE 7 11 30.01 1016 10 16.0934 N/A

Powered by AerisWeather